SRR1 EGPH-EKCH

Flight info

Callsign SRR1
Flight time N/A
Altitude 33000
Route TLA Y96 OTBUN DCT SURAT DCT PETIL DCT TESPI
Aircraft B77L/H-SDE1E2E3FGHIJ2J3J4J5M1RWXY/LB1D1

Departure

Time 2026-04-25 21:21
Airport Edinburgh Airport (EGPH)

Arrival

Time N/A
Airport Copenhagen Kastrup Airport (EKCH)
Time Latitude Longitude Altitude Speed Heading
2026-04-25 20:27 55.94988 -3.34758 121 ft 0 kts 28°
2026-04-25 20:50 55.94970 -3.34777 116 ft 2 kts 29°
2026-04-25 20:50 55.94949 -3.34794 116 ft 4 kts
2026-04-25 20:50 55.94930 -3.34792 116 ft 4 kts 323°
2026-04-25 20:50 55.94915 -3.34760 116 ft 4 kts 292°
2026-04-25 20:51 55.94906 -3.34719 116 ft 2 kts 298°
2026-04-25 20:51 55.94905 -3.34717 116 ft 0 kts 298°
2026-04-25 21:08 55.94914 -3.34746 116 ft 7 kts 298°
2026-04-25 21:08 55.94906 -3.34829 117 ft 8 kts 226°
2026-04-25 21:09 55.94828 -3.34952 117 ft 8 kts 277°
2026-04-25 21:09 55.94855 -3.35047 116 ft 9 kts 298°
2026-04-25 21:09 55.94886 -3.35145 116 ft 9 kts 299°
2026-04-25 21:10 55.94916 -3.35244 116 ft 9 kts 298°
2026-04-25 21:10 55.94947 -3.35342 117 ft 9 kts 298°
2026-04-25 21:10 55.94977 -3.35441 116 ft 9 kts 298°
2026-04-25 21:10 55.95007 -3.35540 119 ft 9 kts 299°
2026-04-25 21:11 55.95038 -3.35639 117 ft 9 kts 299°
2026-04-25 21:11 55.95069 -3.35737 116 ft 9 kts 301°
2026-04-25 21:11 55.95107 -3.35828 118 ft 9 kts 301°
2026-04-25 21:11 55.95145 -3.35917 116 ft 9 kts 320°
2026-04-25 21:12 55.95198 -3.35982 115 ft 9 kts 319°
2026-04-25 21:12 55.95196 -3.36091 116 ft 10 kts 245°
2026-04-25 21:12 55.95163 -3.36195 115 ft 10 kts 240°
2026-04-25 21:12 55.95140 -3.36265 115 ft 10 kts 239°
2026-04-25 21:13 55.95095 -3.36401 116 ft 10 kts 239°
2026-04-25 21:13 55.95060 -3.36504 116 ft 10 kts 239°
2026-04-25 21:13 55.95025 -3.36606 117 ft 10 kts 239°
2026-04-25 21:13 55.94990 -3.36709 116 ft 10 kts 239°
2026-04-25 21:14 55.94955 -3.36812 116 ft 10 kts 239°
2026-04-25 21:14 55.94920 -3.36914 117 ft 10 kts 238°
2026-04-25 21:14 55.94884 -3.37017 116 ft 10 kts 239°
2026-04-25 21:14 55.94850 -3.37120 115 ft 10 kts 239°
2026-04-25 21:15 55.94815 -3.37223 117 ft 10 kts 239°
2026-04-25 21:15 55.94780 -3.37327 116 ft 10 kts 239°
2026-04-25 21:15 55.94745 -3.37427 116 ft 10 kts 237°
2026-04-25 21:15 55.94709 -3.37530 117 ft 10 kts 237°
2026-04-25 21:16 55.94675 -3.37634 117 ft 10 kts 240°
2026-04-25 21:16 55.94641 -3.37738 115 ft 10 kts 239°
2026-04-25 21:16 55.94606 -3.37841 115 ft 10 kts 239°
2026-04-25 21:16 55.94571 -3.37943 117 ft 10 kts 238°
2026-04-25 21:17 55.94535 -3.38045 115 ft 10 kts 238°
2026-04-25 21:17 55.94501 -3.38149 116 ft 10 kts 239°
2026-04-25 21:17 55.94466 -3.38253 116 ft 10 kts 239°
2026-04-25 21:17 55.94431 -3.38356 117 ft 10 kts 239°
2026-04-25 21:18 55.94397 -3.38458 116 ft 10 kts 239°
2026-04-25 21:18 55.94362 -3.38561 115 ft 10 kts 239°
2026-04-25 21:18 55.94327 -3.38664 117 ft 10 kts 239°
2026-04-25 21:18 55.94292 -3.38768 116 ft 10 kts 239°
2026-04-25 21:19 55.94300 -3.38873 116 ft 10 kts 316°
2026-04-25 21:19 55.94357 -3.38943 116 ft 10 kts 329°
2026-04-25 21:19 55.94425 -3.38929 116 ft 11 kts 45°
2026-04-25 21:19 55.94443 -3.38887 114 ft 0 kts 56°
2026-04-25 21:20 55.94670 -3.38220 114 ft 103 kts 59°
2026-04-25 21:20 55.95202 -3.36663 236 ft 179 kts 58°
2026-04-25 21:21 55.95874 -3.34699 1126 ft 183 kts 58°
2026-04-25 21:21 55.96720 -3.33045 2219 ft 187 kts 44°
2026-04-25 21:21 55.97774 -3.31384 2488 ft 217 kts 44°
2026-04-25 21:21 55.98983 -3.29452 2787 ft 245 kts 43°
2026-04-25 21:22 56.00434 -3.27714 3426 ft 258 kts 23°
2026-04-25 21:22 56.02201 -3.26943 4239 ft 264 kts
2026-04-25 21:22 56.04013 -3.27339 5164 ft 263 kts 339°
2026-04-25 21:22 56.05631 -3.28862 5830 ft 265 kts 319°
2026-04-25 21:23 56.06804 -3.31357 6133 ft 262 kts 296°
2026-04-25 21:23 56.07402 -3.34430 6297 ft 268 kts 283°
2026-04-25 21:23 56.07831 -3.37696 7016 ft 267 kts 282°
2026-04-25 21:23 56.08244 -3.40885 7991 ft 267 kts 282°
2026-04-25 21:24 56.08672 -3.44128 8845 ft 269 kts 282°
2026-04-25 21:24 56.09115 -3.47429 9630 ft 275 kts 282°
2026-04-25 21:24 56.09569 -3.50795 10378 ft 282 kts 282°
2026-04-25 21:24 56.10063 -3.54225 11084 ft 286 kts 288°
2026-04-25 21:25 56.10918 -3.57499 11775 ft 293 kts 296°
2026-04-25 21:25 56.11923 -3.60800 12181 ft 312 kts 297°
2026-04-25 21:25 56.13257 -3.64029 12321 ft 338 kts 316°
2026-04-25 21:25 56.15276 -3.66455 12515 ft 364 kts 336°
2026-04-25 21:26 56.17768 -3.67819 12900 ft 382 kts 345°
2026-04-25 21:26 56.20372 -3.69019 13541 ft 388 kts 341°
2026-04-25 21:26 56.22772 -3.71231 14066 ft 393 kts 317°
2026-04-25 21:26 56.24471 -3.75033 14808 ft 391 kts 295°
2026-04-25 21:27 56.25326 -3.79642 15682 ft 388 kts 277°
2026-04-25 21:27 56.25337 -3.84473 16483 ft 388 kts 259°
2026-04-25 21:27 56.24880 -3.89238 17016 ft 391 kts 263°
2026-04-25 21:27 56.24884 -3.94178 17637 ft 399 kts 275°
2026-04-25 21:28 56.25425 -3.99031 18409 ft 404 kts 285°
2026-04-25 21:28 56.26485 -4.03725 19141 ft 408 kts 296°
2026-04-25 21:28 56.28028 -4.08046 19836 ft 413 kts 306°
2026-04-25 21:28 56.29987 -4.11820 20463 ft 419 kts 316°
2026-04-25 21:29 56.32354 -4.14993 21079 ft 424 kts 327°
2026-04-25 21:29 56.35126 -4.16935 21617 ft 436 kts 348°
2026-04-25 21:29 56.37146 -4.17147 21999 ft 443 kts
2026-04-25 21:29 56.41192 -4.15586 22738 ft 450 kts 15°
2026-04-25 21:30 56.43158 -4.14323 23093 ft 455 kts 21°
2026-04-25 21:30 56.45901 -4.11394 23631 ft 463 kts 37°
2026-04-25 21:30 56.48127 -4.07157 24194 ft 469 kts 56°
2026-04-25 21:30 56.49158 -4.03638 24531 ft 468 kts 67°
2026-04-25 21:31 56.50666 -3.96283 25072 ft 475 kts 70°
2026-04-25 21:31 56.51773 -3.90628 25325 ft 474 kts 70°
2026-04-25 21:31 56.52891 -3.85022 25296 ft 477 kts 70°
2026-04-25 21:31 56.54046 -3.79393 25297 ft 477 kts 69°
2026-04-25 21:32 56.55231 -3.73739 25293 ft 476 kts 69°
2026-04-25 21:32 56.56414 -3.68141 25297 ft 475 kts 69°
2026-04-25 21:32 56.57602 -3.62522 25655 ft 478 kts 69°
2026-04-25 21:32 56.58777 -3.56945 26210 ft 480 kts 69°
2026-04-25 21:33 56.59982 -3.51200 26749 ft 482 kts 69°
2026-04-25 21:33 56.61163 -3.45551 27224 ft 485 kts 70°
2026-04-25 21:33 56.62349 -3.39793 27659 ft 485 kts 72°
2026-04-25 21:33 56.63010 -3.33758 27882 ft 490 kts 90°
2026-04-25 21:34 56.62606 -3.27647 28299 ft 488 kts 108°
2026-04-25 21:34 56.61230 -3.22051 28819 ft 484 kts 125°
2026-04-25 21:34 56.59107 -3.17360 29284 ft 481 kts 139°
2026-04-25 21:34 56.56419 -3.13766 29671 ft 479 kts 153°
2026-04-25 21:35 56.53355 -3.11459 30024 ft 478 kts 166°
2026-04-25 21:35 56.50084 -3.10448 30401 ft 476 kts 181°
2026-04-25 21:35 56.46848 -3.10994 30767 ft 471 kts 190°
2026-04-25 21:35 56.43620 -3.11909 31130 ft 471 kts 190°
2026-04-25 21:36 56.40368 -3.12854 31572 ft 470 kts 190°
2026-04-25 21:36 56.37143 -3.13766 32035 ft 468 kts 190°
2026-04-25 21:36 56.33919 -3.14641 32500 ft 467 kts 189°
2026-04-25 21:36 56.30710 -3.15478 32922 ft 466 kts 189°
2026-04-25 21:37 56.27506 -3.16292 33310 ft 465 kts 189°
2026-04-25 21:37 56.25374 -3.16826 33316 ft 467 kts 189°
2026-04-25 21:37 56.17836 -3.18424 33284 ft 467 kts 182°
2026-04-25 21:38 56.11439 -3.16717 33291 ft 472 kts 163°
2026-04-25 21:38 56.05574 -3.11383 33288 ft 478 kts 145°
2026-04-25 21:39 56.00869 -3.02922 33292 ft 484 kts 127°
2026-04-25 21:39 55.97819 -2.92166 33291 ft 490 kts 109°
2026-04-25 21:40 55.96738 -2.80107 33300 ft 495 kts 91°
2026-04-25 21:40 55.97749 -2.68013 33294 ft 498 kts 73°
2026-04-25 21:41 56.00395 -2.56560 33305 ft 499 kts 66°
2026-04-25 21:41 56.03411 -2.45395 33298 ft 497 kts 66°
2026-04-25 21:42 56.04638 -2.39628 33296 ft 495 kts 77°
2026-04-25 21:42 56.05225 -2.33596 33315 ft 491 kts 87°
2026-04-25 21:42 56.05219 -2.21425 33312 ft 489 kts 93°
2026-04-25 21:43 56.05145 -2.09260 33311 ft 489 kts 92°
2026-04-25 21:43 56.05122 -1.97074 33314 ft 489 kts 92°
2026-04-25 21:44 56.05095 -1.84981 33321 ft 489 kts 92°
2026-04-25 21:45 56.05018 -1.66727 33316 ft 489 kts 92°
2026-04-25 21:45 56.04948 -1.54547 33315 ft 489 kts 92°
2026-04-25 21:46 56.04866 -1.42375 33320 ft 489 kts 92°
2026-04-25 21:46 56.04774 -1.30287 33318 ft 489 kts 93°
2026-04-25 21:47 56.04668 -1.18126 33320 ft 489 kts 93°